TimeEST,TemperatureF,Dew PointF,Humidity,Sea Level PressureIn,VisibilityMPH,Wind Direction,Wind SpeedMPH,Gust SpeedMPH,PrecipitationIn,Events,Conditions,WindDirDegrees,DateUTC
12:07 AM,19.4,12.2,74,29.81,2.5,West,15.0,21.9,0.00,Snow,Light Snow,270,2012-12-23 05:07:00
12:24 AM,19.4,12.2,74,29.81,1.5,West,13.8,21.9,0.00,Snow,Light Snow,280,2012-12-23 05:24:00
12:39 AM,19.4,12.2,74,29.81,2.0,West,13.8,-,0.00,Snow,Light Snow,270,2012-12-23 05:39:00
12:50 AM,19.4,12.2,74,29.81,7.0,West,13.8,-,0.00,Snow,Light Snow,280,2012-12-23 05:50:00
12:53 AM,19.0,12.0,74,29.83,8.0,West,15.0,-,0.00,Snow,Light Snow,280,2012-12-23 05:53:00
1:42 AM,19.4,14.0,80,29.83,2.5,West,8.1,-,0.00,Snow,Light Snow,270,2012-12-23 06:42:00
1:53 AM,19.0,14.0,81,29.86,3.0,West,6.9,-,0.00,Snow,Light Snow,260,2012-12-23 06:53:00
2:53 AM,18.0,10.0,71,29.87,10.0,West,12.7,19.6,0.00,,Overcast,260,2012-12-23 07:53:00
3:53 AM,18.0,12.0,78,29.88,6.0,West,10.4,-,0.00,Snow,Light Snow,260,2012-12-23 08:53:00
4:18 AM,17.6,10.4,73,29.85,10.0,WSW,10.4,-,0.00,,Overcast,250,2012-12-23 09:18:00
4:42 AM,17.6,10.4,73,29.85,10.0,WSW,9.2,-,0.00,,Overcast,240,2012-12-23 09:42:00
4:53 AM,18.0,10.9,74,29.87,10.0,WSW,9.2,-,0.00,,Overcast,250,2012-12-23 09:53:00
5:37 AM,17.6,10.4,73,29.86,10.0,WSW,11.5,21.9,N/A,,Overcast,250,2012-12-23 10:37:00
5:53 AM,18.0,10.0,71,29.88,10.0,WSW,13.8,-,N/A,,Overcast,250,2012-12-23 10:53:00
6:53 AM,18.0,10.9,74,29.88,10.0,WSW,6.9,-,N/A,,Overcast,240,2012-12-23 11:53:00
7:53 AM,18.0,10.0,71,29.87,10.0,WSW,8.1,-,N/A,,Overcast,240,2012-12-23 12:53:00
8:53 AM,19.0,10.9,71,29.87,10.0,WSW,4.6,-,N/A,,Overcast,240,2012-12-23 13:53:00
9:53 AM,19.0,12.9,77,29.87,10.0,SSW,5.8,-,N/A,,Overcast,210,2012-12-23 14:53:00
10:53 AM,19.9,15.1,81,29.85,4.0,SW,5.8,-,0.00,Snow,Light Snow,220,2012-12-23 15:53:00
11:53 AM,21.9,18.0,85,29.81,5.0,SW,4.6,-,0.00,Snow,Light Snow,220,2012-12-23 16:53:00
12:36 PM,23.0,17.6,80,29.77,1.8,SW,6.9,-,0.00,Snow,Light Snow,220,2012-12-23 17:36:00
12:50 PM,23.0,17.6,80,29.77,7.0,SW,5.8,-,0.00,Snow,Light Snow,220,2012-12-23 17:50:00
12:53 PM,23.0,19.0,85,29.79,7.0,SW,4.6,-,0.00,Snow,Light Snow,220,2012-12-23 17:53:00
1:53 PM,24.1,19.9,84,29.77,6.0,SW,4.6,-,0.00,Snow,Light Snow,220,2012-12-23 18:53:00
2:06 PM,24.8,19.4,80,29.75,7.0,Calm,Calm,-,0.00,Snow,Light Snow,0,2012-12-23 19:06:00
2:44 PM,24.8,19.4,80,29.74,1.8,Calm,Calm,-,0.00,Snow,Light Snow,0,2012-12-23 19:44:00
2:53 PM,25.0,21.0,85,29.76,2.5,Calm,Calm,-,0.00,Snow,Light Snow,0,2012-12-23 19:53:00
3:04 PM,24.8,21.2,86,29.74,1.8,Calm,Calm,-,0.00,Snow,Light Snow,0,2012-12-23 20:04:00
3:21 PM,24.8,21.2,86,29.74,3.0,Calm,Calm,-,0.00,Snow,Light Snow,0,2012-12-23 20:21:00
3:32 PM,24.8,21.2,86,29.73,1.8,NE,3.5,-,0.00,Snow,Light Snow,50,2012-12-23 20:32:00
3:42 PM,24.8,21.2,86,29.74,2.0,NNE,3.5,-,0.00,Snow,Light Snow,20,2012-12-23 20:42:00
3:45 PM,24.8,21.2,86,29.74,1.2,NNE,3.5,-,0.00,Snow,Light Snow,20,2012-12-23 20:45:00
3:50 PM,24.8,21.2,86,29.74,0.5,Calm,Calm,-,0.00,Fog-Snow,Snow,0,2012-12-23 20:50:00
3:53 PM,24.1,21.9,91,29.76,0.5,NNE,3.5,-,0.00,Fog-Snow,Snow,30,2012-12-23 20:53:00
4:15 PM,24.8,21.2,86,29.75,0.2,Calm,Calm,-,0.02,Fog-Snow,Heavy Snow,0,2012-12-23 21:15:00
4:29 PM,24.8,21.2,86,29.75,1.0,Calm,Calm,-,0.02,Snow,Light Snow,0,2012-12-23 21:29:00
4:40 PM,24.8,21.2,86,29.75,1.5,Calm,Calm,-,0.02,Snow,Light Snow,0,2012-12-23 21:40:00
4:53 PM,24.1,21.0,88,29.78,2.5,NNE,3.5,-,0.02,Snow,Light Snow,20,2012-12-23 21:53:00
5:01 PM,24.8,21.2,86,29.76,5.0,NNE,3.5,-,0.00,Snow,Light Snow,20,2012-12-23 22:01:00
5:35 PM,24.8,21.2,86,29.78,6.0,NNW,4.6,-,0.00,Snow,Light Snow,340,2012-12-23 22:35:00
5:53 PM,24.1,19.9,84,29.81,7.0,NNW,3.5,-,0.00,Snow,Light Snow,340,2012-12-23 22:53:00
6:53 PM,23.0,19.0,85,29.85,10.0,WNW,9.2,-,0.00,,Overcast,290,2012-12-23 23:53:00
7:53 PM,21.0,16.0,81,29.87,10.0,West,8.1,-,N/A,,Overcast,280,2012-12-24 00:53:00
8:19 PM,19.4,15.8,86,29.85,10.0,West,4.6,-,N/A,,Mostly Cloudy,280,2012-12-24 01:19:00
8:53 PM,19.0,14.0,81,29.89,10.0,West,4.6,-,0.01,,Mostly Cloudy,270,2012-12-24 01:53:00
9:53 PM,19.9,15.1,81,29.92,10.0,West,6.9,-,N/A,,Overcast,280,2012-12-24 02:53:00
10:53 PM,19.9,14.0,78,29.94,10.0,West,5.8,-,N/A,,Overcast,260,2012-12-24 03:53:00
11:53 PM,18.0,10.9,74,29.97,10.0,West,11.5,-,0.00,,Overcast,280,2012-12-24 04:53:00